COSMOS 2251 DEB, 33837

Orbit data source: Space-Track

COSMOS 2251 DEB, 33837 is space debris in LEO originally from a launch on Wed, 16 Jun 1993 UTC launched from the Plesetsk Missile And Space Complex (PKMTR). The debris from Iridium 33, an American commercial communications satellite, has been tracked extensively since its accidental collision with the defunct Russian satellite Cosmos 2251 in 2009. This event, occurring at high speed in low Earth orbit (LEO), generated thousands of pieces of space debris, significantly increasing the risk of further collisions. The Iridium 33 debris cloud has impacted space traffic management and orbital debris mitigation strategies, making it a subject of ongoing study in space situational awareness.

Loading next visibility...
Identifier
33837, 1993-036CE
Orbit
LEO
Country
Flag of CISCIS
Related business
Manufacturer
Unknown
Mission
Spacecraft
Bus & Motor
Unknown
Mass
Unknown
Launch date (UTC)
1993-06-16 (33 years ago)
Launch vehicle
Unknown
Launch site
Plesetsk Missile And Space Complex (PKMTR)
Object type
Payload
Rocket body
Debris
Shape & HBR
Unknown shape, 0.1 m
Radar Cross Section
Small (<0.1 m²)

Expand to show TLE details & history
Last TLE update: 15 hours ago

TLE from 15 hours ago
0 COSMOS 2251 DEB
1 33837U 93036CE  26065.48759159  .00001297  00000-0  33326-3 0  9991
2 33837  74.0094 257.8984 0033453  99.5472 260.9471 14.50904637900105
Epoch: 2026-03-06T11:42Z
TLE epoch observation values (Epoch: 2026-03-06T11:42:07.913Z)
Latitude
-0.00007°
Longitude
-81.85747°
Altitude
729.139 km
Speed
7.489 km/s
True Right ascension
17h 11m 35s
True Declination
0° 00' 00"
Sunlit
Object was in daylight at epoch
Visualization orbit readout
Latitude
Unknown
Longitude
Unknown
Altitude
Unknown
Speed
Unknown
Apparent Right ascension
Unknown
Apparent Declination
Unknown
Sunlit
N/A
Visualization observer readout
Local Sidereal Time
06:50:56
Azimuth
Unknown
Elevation
Unknown
Doppler factor
Unknown
Orbital elements
Apogee altitude
744.052 km
Perigee altitude
696.559 km
Semi-major axis
7,098.442 km
Eccentricity
0.00335
Inclination
74.0094°
RAAN
257.8984°
Arg. of periapsis
99.5472°
True anomaly
260.56878°
Mean anomaly
260.9471°
Eccentric anomaly
260.75792°
Mean motion
3.6291 °/min
Orbital period
99.2 mins
BSTAR
0.00033326
Loading maneuver chart data...
Computing Atmospheric mass density...

Documentation

Showing up to 5 results
|